| time (UTC) | temp F | wind direction | speed MPH | gust MPH | rain 1hr in | rain 24hr in | rain mn in | humidity % | barometer mb |
| 20260906132518 | 88 | 203 | 6.0 | 13.0 | 0.00 | 0.00 | 0.00 | 56 | 1017.5 |
| 20260906131516 | 88 | 203 | 7.0 | 13.0 | 0.00 | 0.00 | 0.00 | 58 | 1017.6 |
| 20260906130516 | 88 | 203 | 8.0 | 14.0 | 0.00 | 0.00 | 0.00 | 59 | 1017.7 |
| 20260906125516 | 88 | 203 | 7.0 | 16.0 | 0.00 | 0.00 | 0.00 | 60 | 1017.7 |
| 20260906124516 | 88 | 203 | 6.0 | 13.0 | 0.00 | 0.00 | 0.00 | 59 | 1017.8 |
| 20260906123536 | 88 | 225 | 8.0 | 13.0 | 0.00 | 0.00 | 0.00 | 58 | 1017.9 |
| 20260906122516 | 89 | 203 | 6.0 | 10.0 | 0.00 | 0.00 | 0.00 | 56 | 1017.9 |
| 20260906121516 | 89 | 203 | 5.0 | 11.0 | 0.00 | 0.00 | 0.00 | 52 | 1017.9 |
| 20260906120516 | 89 | 203 | 6.0 | 13.0 | 0.00 | 0.00 | 0.00 | 54 | 1018.0 |
| 20260906115536 | 88 | 203 | 7.0 | 17.0 | 0.00 | 0.00 | 0.00 | 56 | 1017.9 |
| 20260906114516 | 88 | 203 | 7.0 | 16.0 | 0.00 | 0.00 | 0.00 | 55 | 1018.0 |
| 20260906113516 | 89 | 203 | 5.0 | 10.0 | 0.00 | 0.00 | 0.00 | 54 | 1018.1 |
| 20260906112536 | 89 | 203 | 5.0 | 11.0 | 0.00 | 0.00 | 0.00 | 52 | 1018.1 |
| 20260906111516 | 89 | 203 | 6.0 | 10.0 | 0.00 | 0.00 | 0.00 | 54 | 1018.1 |
| 20260906110516 | 89 | 203 | 5.0 | 14.0 | 0.00 | 0.00 | 0.00 | 54 | 1018.0 |
| 20260906105556 | 89 | 225 | 6.0 | 11.0 | 0.00 | 0.00 | 0.00 | 53 | 1018.1 |
| 20260906104516 | 89 | 203 | 4.0 | 14.0 | 0.00 | 0.00 | 0.00 | 54 | 1018.2 |
| 20260906103516 | 89 | 203 | 3.0 | 9.0 | 0.00 | 0.00 | 0.00 | 53 | 1018.1 |
| 20260906102516 | 89 | 203 | 4.0 | 9.0 | 0.00 | 0.00 | 0.00 | 53 | 1018.2 |
| 20260906101516 | 89 | 203 | 4.0 | 10.0 | 0.00 | 0.00 | 0.00 | 53 | 1018.2 |
| 20260906100516 | 88 | 203 | 5.0 | 12.0 | 0.00 | 0.00 | 0.00 | 52 | 1018.2 |
| 20260906095516 | 88 | 203 | 4.0 | 12.0 | 0.00 | 0.00 | 0.00 | 51 | 1018.2 |
| 20260906094516 | 88 | 203 | 3.0 | 5.0 | 0.00 | 0.00 | 0.00 | 51 | 1018.2 |
| 20260906093515 | 87 | 203 | 5.0 | 10.0 | 0.00 | 0.00 | 0.00 | 50 | 1018.3 |
| 20260906092536 | 87 | 225 | 2.0 | 6.0 | 0.00 | 0.00 | 0.00 | 51 | 1018.4 |
| 20260906091556 | 87 | 203 | 3.0 | 8.0 | 0.00 | 0.00 | 0.00 | 50 | 1018.4 |
| 20260906090515 | 86 | 225 | 3.0 | 6.0 | 0.00 | 0.00 | 0.00 | 49 | 1018.5 |
| 20260906085536 | 86 | 203 | 1.0 | 5.0 | 0.00 | 0.00 | 0.00 | 55 | 1018.5 |
| 20260906084536 | 85 | 203 | 2.0 | 6.0 | 0.00 | 0.00 | 0.00 | 54 | 1018.5 |
| 20260906083515 | 85 | 180 | 2.0 | 4.0 | 0.00 | 0.00 | 0.00 | 55 | 1018.5 |
| 20260906082517 | 84 | 203 | 2.0 | 5.0 | 0.00 | 0.00 | 0.00 | 55 | 1018.5 |
| 20260906081516 | 84 | 113 | 2.0 | 5.0 | 0.00 | 0.00 | 0.00 | 54 | 1018.6 |
| 20260906080516 | 84 | 203 | 2.0 | 6.0 | 0.00 | 0.00 | 0.00 | 55 | 1018.5 |
| 20260906075536 | 82 | 113 | 3.0 | 5.0 | 0.00 | 0.00 | 0.00 | 58 | 1018.3 |
| 20260906074515 | 81 | 113 | 3.0 | 5.0 | 0.00 | 0.00 | 0.00 | 60 | 1018.2 |
| 20260906073535 | 81 | 113 | 2.0 | 4.0 | 0.00 | 0.00 | 0.00 | 62 | 1018.1 |
| 20260906072515 | 79 | 90 | 2.0 | 5.0 | 0.00 | 0.00 | 0.00 | 62 | 1018.0 |
| 20260906071518 | 79 | 0.0 | 0.0 | 0.00 | 0.00 | 0.00 | 65 | 1018.0 | |
| 20260906070537 | 79 | 0.0 | 0.0 | 0.00 | 0.00 | 0.00 | 66 | 1017.9 | |
| 20260906065517 | 79 | 0.0 | 0.0 | 0.00 | 0.00 | 0.00 | 67 | 1017.9 | |
| 20260906064517 | 79 | 0.0 | 0.0 | 0.00 | 0.00 | 0.00 | 66 | 1017.8 | |
| 20260906063517 | 78 | 0.0 | 0.0 | 0.00 | 0.00 | 0.00 | 68 | 1017.8 | |
| 20260906062557 | 77 | 0.0 | 0.0 | 0.00 | 0.00 | 0.00 | 70 | 1017.8 | |
| 20260906061517 | 74 | 0.0 | 0.0 | 0.00 | 0.00 | 0.00 | 74 | 1017.8 | |
| 20260906060517 | 73 | 0.0 | 0.0 | 0.00 | 0.00 | 0.00 | 74 | 1017.8 | |
| 20260906055517 | 72 | 0.0 | 0.0 | 0.00 | 0.00 | 0.00 | 77 | 1017.8 | |
| 20260906054517 | 72 | 0.0 | 0.0 | 0.00 | 0.00 | 0.00 | 78 | 1017.7 | |
| 20260906053517 | 71 | 0.0 | 0.0 | 0.00 | 0.00 | 0.00 | 77 | 1017.6 | |
| 20260906052517 | 71 | 0.0 | 0.0 | 0.00 | 0.00 | 0.00 | 72 | 1017.6 | |
| 20260906051517 | 70 | 0.0 | 0.0 | 0.00 | 0.00 | 0.00 | 68 | 1017.6 | |
| 20260906050517 | 69 | 0.0 | 0.0 | 0.00 | 0.00 | 0.00 | 69 | 1017.5 | |
| 20260906045517 | 68 | 0.0 | 0.0 | 0.00 | 0.00 | 0.00 | 67 | 1017.5 | |
| 20260906044517 | 68 | 0.0 | 0.0 | 0.00 | 0.00 | 0.00 | 68 | 1017.5 | |
| 20260906043517 | 68 | 0.0 | 0.0 | 0.00 | 0.00 | 0.00 | 67 | 1017.5 | |
| 20260906042537 | 68 | 0.0 | 0.0 | 0.00 | 0.00 | 0.00 | 70 | 1017.4 | |
| 20260906041517 | 68 | 0.0 | 0.0 | 0.00 | 0.00 | 0.00 | 73 | 1017.5 | |
| 20260906040517 | 68 | 0.0 | 0.0 | 0.00 | 0.00 | 0.00 | 70 | 1017.3 | |
| 20260906035537 | 69 | 0.0 | 0.0 | 0.00 | 0.00 | 0.00 | 72 | 1017.4 | |
| 20260906034517 | 68 | 0.0 | 0.0 | 0.00 | 0.00 | 0.00 | 72 | 1017.3 | |
| 20260906033517 | 68 | 0.0 | 0.0 | 0.00 | 0.00 | 0.00 | 69 | 1017.3 | |
| 20260906032517 | 68 | 0.0 | 0.0 | 0.00 | 0.00 | 0.00 | 68 | 1017.3 | |
| 20260906031517 | 69 | 0.0 | 0.0 | 0.00 | 0.00 | 0.00 | 67 | 1017.3 | |
| 20260906030517 | 69 | 0.0 | 0.0 | 0.00 | 0.00 | 0.00 | 68 | 1017.3 | |
| 20260906025517 | 69 | 0.0 | 0.0 | 0.00 | 0.00 | 0.00 | 68 | 1017.3 | |
| 20260906024517 | 68 | 0.0 | 0.0 | 0.00 | 0.00 | 0.00 | 71 | 1017.3 | |
| 20260906023517 | 68 | 0.0 | 0.0 | 0.00 | 0.00 | 0.00 | 73 | 1017.5 | |
| 20260906022517 | 68 | 0.0 | 0.0 | 0.00 | 0.00 | 0.00 | 73 | 1017.5 | |
| 20260906021517 | 69 | 0.0 | 0.0 | 0.00 | 0.00 | 0.00 | 72 | 1017.5 | |
| 20260906020537 | 70 | 0.0 | 0.0 | 0.00 | 0.00 | 0.00 | 79 | 1017.5 | |
| 20260906015517 | 70 | 0.0 | 0.0 | 0.00 | 0.00 | 0.00 | 76 | 1017.5 | |
| 20260906014517 | 70 | 0.0 | 0.0 | 0.00 | 0.00 | 0.00 | 67 | 1017.6 | |
| 20260906013517 | 70 | 0.0 | 0.0 | 0.00 | 0.00 | 0.00 | 67 | 1017.4 | |
| 20260906012517 | 69 | 0.0 | 0.0 | 0.00 | 0.00 | 0.00 | 69 | 1017.4 | |
| 20260906011517 | 70 | 0.0 | 0.0 | 0.00 | 0.00 | 0.00 | 73 | 1017.4 | |
| 20260906010517 | 69 | 0.0 | 0.0 | 0.00 | 0.00 | 0.00 | 71 | 1017.4 | |
| 20260906005517 | 70 | 0.0 | 0.0 | 0.00 | 0.00 | 0.00 | 72 | 1017.3 | |
| 20260906004517 | 70 | 0.0 | 0.0 | 0.00 | 0.00 | 0.00 | 74 | 1017.4 | |
| 20260906003517 | 70 | 0.0 | 0.0 | 0.00 | 0.00 | 0.00 | 74 | 1017.2 | |
| 20260906002517 | 71 | 0.0 | 0.0 | 0.00 | 0.00 | 0.00 | 77 | 1017.3 | |
| 20260906001517 | 71 | 0.0 | 0.0 | 0.00 | 0.00 | 0.00 | 78 | 1017.3 | |
| 20260906000516 | 72 | 0.0 | 0.0 | 0.00 | 0.00 | 0.00 | 77 | 1017.3 | |
| 20260905235516 | 72 | 0.0 | 0.0 | 0.00 | 0.00 | 0.00 | 77 | 1017.4 | |
| 20260905234517 | 72 | 0.0 | 0.0 | 0.00 | 0.00 | 0.00 | 75 | 1017.5 | |
| 20260905233537 | 72 | 0.0 | 0.0 | 0.00 | 0.00 | 0.00 | 75 | 1017.6 | |
| 20260905232517 | 73 | 0.0 | 1.0 | 0.00 | 0.00 | 0.00 | 76 | 1017.6 | |
| 20260905231516 | 73 | 0.0 | 2.0 | 0.00 | 0.00 | 0.00 | 77 | 1017.5 | |
| 20260905230516 | 73 | 0.0 | 0.0 | 0.00 | 0.00 | 0.00 | 77 | 1017.6 | |
| 20260905225518 | 73 | 0.0 | 0.0 | 0.00 | 0.00 | 0.00 | 78 | 1017.5 | |
| 20260905224516 | 74 | 0.0 | 0.0 | 0.00 | 0.00 | 0.00 | 78 | 1017.5 | |
| 20260905223518 | 74 | 0.0 | 0.0 | 0.00 | 0.00 | 0.00 | 79 | 1017.8 | |
| 20260905222516 | 74 | 0.0 | 0.0 | 0.00 | 0.00 | 0.00 | 78 | 1017.6 | |
| 20260905221516 | 74 | 0.0 | 0.0 | 0.00 | 0.00 | 0.00 | 79 | 1017.5 | |
| 20260905220516 | 73 | 0.0 | 0.0 | 0.00 | 0.00 | 0.00 | 79 | 1017.5 | |
| 20260905215517 | 73 | 0.0 | 0.0 | 0.00 | 0.00 | 0.00 | 79 | 1017.4 | |
| 20260905214517 | 74 | 338 | 2.0 | 4.0 | 0.00 | 0.00 | 0.00 | 81 | 1017.5 |
| 20260905213537 | 74 | 0.0 | 2.0 | 0.00 | 0.00 | 0.00 | 88 | 1017.5 | |
| 20260905212517 | 74 | 0.0 | 1.0 | 0.00 | 0.00 | 0.00 | 88 | 1017.4 | |
| 20260905211517 | 74 | 0.0 | 2.0 | 0.00 | 0.00 | 0.00 | 86 | 1017.4 | |
| 20260905210517 | 74 | 0.0 | 1.0 | 0.00 | 0.00 | 0.00 | 85 | 1017.4 | |
| 20260905205519 | 74 | 0.0 | 1.0 | 0.00 | 0.00 | 0.00 | 84 | 1017.5 | |
| 20260905204517 | 74 | 0.0 | 1.0 | 0.00 | 0.00 | 0.00 | 83 | 1017.4 | |
| 20260905203517 | 74 | 0.0 | 1.0 | 0.00 | 0.00 | 0.00 | 83 | 1017.3 | |
| 20260905202517 | 75 | 338 | 1.0 | 3.0 | 0.00 | 0.00 | 0.00 | 84 | 1017.4 |
| 20260905201517 | 75 | 0.0 | 0.0 | 0.00 | 0.00 | 0.00 | 84 | 1017.4 | |
| 20260905200517 | 75 | 0.0 | 0.0 | 0.00 | 0.00 | 0.00 | 85 | 1017.5 | |
| 20260905195517 | 76 | 0.0 | 0.0 | 0.00 | 0.00 | 0.00 | 86 | 1017.5 | |
| 20260905194517 | 77 | 0.0 | 0.0 | 0.00 | 0.00 | 0.00 | 86 | 1017.4 | |
| 20260905193516 | 77 | 0.0 | 0.0 | 0.00 | 0.00 | 0.00 | 86 | 1017.5 | |
| 20260905192537 | 77 | 0.0 | 0.0 | 0.00 | 0.00 | 0.00 | 85 | 1017.2 | |
| 20260905191517 | 78 | 0.0 | 0.0 | 0.00 | 0.00 | 0.00 | 85 | 1017.1 | |
| 20260905190516 | 78 | 0.0 | 0.0 | 0.00 | 0.00 | 0.00 | 85 | 1017.1 | |
| 20260905185516 | 78 | 0.0 | 0.0 | 0.00 | 0.00 | 0.00 | 84 | 1017.0 | |
| 20260905184516 | 79 | 0.0 | 0.0 | 0.00 | 0.00 | 0.00 | 82 | 1017.0 | |
| 20260905183517 | 79 | 0.0 | 2.0 | 0.00 | 0.00 | 0.00 | 81 | 1016.8 | |
| 20260905182517 | 79 | 225 | 1.0 | 3.0 | 0.00 | 0.00 | 0.00 | 81 | 1016.9 |
| 20260905181516 | 80 | 225 | 1.0 | 3.0 | 0.00 | 0.00 | 0.00 | 79 | 1016.7 |
| 20260905180516 | 80 | 225 | 1.0 | 4.0 | 0.00 | 0.00 | 0.00 | 79 | 1016.7 |
| 20260905175516 | 81 | 203 | 1.0 | 4.0 | 0.00 | 0.00 | 0.00 | 77 | 1016.5 |
| 20260905174516 | 81 | 225 | 2.0 | 7.0 | 0.00 | 0.00 | 0.00 | 78 | 1016.4 |
| 20260905173517 | 81 | 203 | 2.0 | 5.0 | 0.00 | 0.00 | 0.00 | 79 | 1016.2 |
| 20260905172536 | 82 | 203 | 4.0 | 11.0 | 0.00 | 0.00 | 0.00 | 79 | 1016.2 |
| 20260905171516 | 82 | 203 | 3.0 | 6.0 | 0.00 | 0.00 | 0.00 | 78 | 1016.3 |
| 20260905170517 | 83 | 225 | 5.0 | 11.0 | 0.00 | 0.00 | 0.00 | 76 | 1016.2 |
| 20260905165516 | 84 | 203 | 4.0 | 8.0 | 0.00 | 0.00 | 0.00 | 75 | 1016.3 |
| 20260905164516 | 84 | 225 | 5.0 | 10.0 | 0.00 | 0.00 | 0.00 | 74 | 1016.3 |
| 20260905163516 | 85 | 203 | 5.0 | 12.0 | 0.00 | 0.00 | 0.00 | 74 | 1016.2 |
| 20260905162516 | 85 | 203 | 4.0 | 8.0 | 0.00 | 0.00 | 0.00 | 74 | 1016.1 |
| 20260905161516 | 85 | 203 | 7.0 | 14.0 | 0.00 | 0.00 | 0.00 | 74 | 1016.2 |
| 20260905160516 | 85 | 203 | 7.0 | 13.0 | 0.00 | 0.00 | 0.00 | 73 | 1016.2 |
| 20260905155516 | 86 | 203 | 6.0 | 11.0 | 0.00 | 0.00 | 0.00 | 70 | 1016.2 |
| 20260905154516 | 86 | 203 | 6.0 | 11.0 | 0.00 | 0.00 | 0.00 | 69 | 1016.1 |
| 20260905153516 | 87 | 203 | 6.0 | 11.0 | 0.00 | 0.00 | 0.00 | 68 | 1016.2 |
| 20260905152516 | 87 | 203 | 6.0 | 11.0 | 0.00 | 0.00 | 0.00 | 66 | 1016.1 |
| 20260905151536 | 87 | 203 | 6.0 | 12.0 | 0.00 | 0.00 | 0.00 | 65 | 1016.1 |
| 20260905150516 | 87 | 203 | 9.0 | 16.0 | 0.00 | 0.00 | 0.00 | 66 | 1016.1 |
| 20260905145516 | 87 | 203 | 7.0 | 12.0 | 0.00 | 0.00 | 0.00 | 63 | 1016.1 |
| 20260905144516 | 88 | 203 | 6.0 | 11.0 | 0.00 | 0.00 | 0.00 | 63 | 1016.2 |
| 20260905143516 | 88 | 203 | 7.0 | 13.0 | 0.00 | 0.00 | 0.00 | 61 | 1016.3 |
| 20260905142536 | 88 | 203 | 6.0 | 12.0 | 0.00 | 0.00 | 0.00 | 60 | 1016.3 |
| 20260905141516 | 88 | 203 | 6.0 | 12.0 | 0.00 | 0.00 | 0.00 | 61 | 1016.3 |
| 20260905140516 | 88 | 203 | 7.0 | 14.0 | 0.00 | 0.00 | 0.00 | 56 | 1016.4 |
| 20260905135516 | 88 | 203 | 7.0 | 13.0 | 0.00 | 0.00 | 0.00 | 60 | 1016.5 |
| 20260905134516 | 88 | 203 | 7.0 | 13.0 | 0.00 | 0.00 | 0.00 | 62 | 1016.5 |
| 20260905133516 | 88 | 203 | 6.0 | 13.0 | 0.00 | 0.00 | 0.00 | 60 | 1016.5 |